Showing default

COSMOS 1954, 19256

Orbit data source: Space-Track

COSMOS 1954, 19256 is a payload satellite owned by UNKS (CIS) in LEO that was launched on Tue, 21 Jun 1988 UTC via a KOSMOS 11K65M launch vehicle from the Plesetsk Missile And Space Complex (PKMTR). Payload-class satellites include a variety of spacecraft equipped with specific instruments for various scientific and technological missions. These include communications satellites like Starlink; space stations such as the ISS; scientific satellites like the Hubble; Earth observation satellites from companies like Planet Labs, Umbra, and HawkEye 360; GPS; miniature CubeSats for education and research; and military/defense satellites.

Loading next visibility...
Identifier
19256, 1988-053A
Orbit
LEO
Country
Flag of CISCIS
Related business
Manufacturer
NPO PM
Mission
Defense Communications
Bus & Motor
STRELA-2M, Unknown motor
Mass
800 kg wet, 800 kg dry
Launch date (UTC)
1988-06-21 (38 years ago)
Launch vehicle
KOSMOS 11K65M
Launch site
Plesetsk Missile And Space Complex (PKMTR)
Object type
Payload
Rocket body
Debris
Shape & HBR
Cyl, 1.5 m
Radar Cross Section
6.283 m², Large (>1 m²)

Expand to show TLE details & history
Last TLE update: 2 days ago

TLE from 2 days ago
0 COSMOS 1954
1 19256U 88053A   26171.32146237  .00000088  00000-0  39911-4 0  9995
2 19256  74.0476  37.3845 0015071  48.7064 311.5383 14.34988342987448
Epoch: 2026-06-20T07:42Z
TLE epoch observation values (Epoch: 2026-06-20T07:42:54.348Z)
Latitude
-0.00005°
Longitude
13.12028°
Altitude
770.575 km
Speed
7.473 km/s
True Right ascension
02h 29m 32s
True Declination
0° 00' 00"
Sunlit
Object was in daylight at epoch
Visualization orbit readout
Latitude
Unknown
Longitude
Unknown
Altitude
Unknown
Speed
Unknown
Apparent Right ascension
Unknown
Apparent Declination
Unknown
Sunlit
N/A
Visualization observer readout
Local Sidereal Time
23:08:28
Azimuth
Unknown
Elevation
Unknown
Doppler factor
Unknown
Orbital elements
Apogee altitude
783.506 km
Perigee altitude
761.952 km
Semi-major axis
7,150.866 km
Eccentricity
0.00151
Inclination
74.0476°
RAAN
37.3845°
Arg. of periapsis
48.7064°
True anomaly
311.40887°
Mean anomaly
311.5383°
Eccentric anomaly
311.4736°
Mean motion
3.58926 °/min
Orbital period
100.3 mins
BSTAR
0.000039911
Loading maneuver chart data...
Computing Atmospheric mass density...
Loading historical data...
Loading historical data...
Loading historical data...
Loading historical data...
Loading historical data...
Loading historical data...
Loading historical data...
Other satellites on launch #53 in the year 1988 (1988-06-21 UTC)

Documentation

Showing up to 5 results
|